Change the Weather History Date:

Wednesday, May 22, 2013

  Actual Average Record
Temperature  
Mean Temperature 58 °F -  
Max Temperature 81 °F 72 °F 86 °F (2005)
Min Temperature 37 °F 42 °F 28 °F (2001)
Degree Days  
Heating Degree Days 6    
Growing Degree Days 8 (Base 50)    
Moisture  
Dew Point 17 °F    
Average Humidity 26    
Maximum Humidity 60    
Minimum Humidity 6    
Precipitation  
Precipitation 0.00 in - - ()
Sea Level Pressure  
Sea Level Pressure 29.75 in    
Wind  
Wind Speed 10 mph (SW)    
Max Wind Speed 24 mph    
Max Gust Speed 37 mph    
Visibility 10 miles    
Events      
Averages and records for this station are not official NWS values.
T = Trace of Precipitation, MM = Missing Value Source: NWS Daily Summary

Daily Weather History Graph

Daily Weather History Graph

Search for Another Location

Airport or City:

Trip Planner

Search our weather history database for the weather conditions in past years. The results will help you decide how hot, cold, wet, or windy it might be!

Date:

Astronomy

May. 22, 2013 Rise Set
Actual Time 5:50 AM MDT 8:04 PM MDT
Civil Twilight 5:21 AM MDT 8:33 PM MDT
Nautical Twilight 4:46 AM MDT 9:08 PM MDT
Astronomical Twilight 4:07 AM MDT 9:47 PM MDT
Moon 5:33 PM MDT (5/22) 3:50 AM MDT (5/22)
Length of Visible Light 15h 11m
Length of Day
14h 13m
Waxing Gibbous, 92% of the Moon is Illuminated
May 22
Waxing Gibbous
May 24
Full
May 31
Last Quarter
Jun 8
New
Jun 16
First Quarter

Hourly Weather History & Observations

Time (MDT) Temp. Windchill Dew Point Humidity Pressure Visibility Wind Dir Wind Speed Gust Speed Precip Events Conditions
12:53 AM 46.0 °F 41.4 °F 26.1 °F 46% 29.82 in 10.0 mi North 9.2 mph - N/A   Clear
1:53 AM 42.1 °F 38.4 °F 25.0 °F 51% 29.82 in 10.0 mi NE 5.8 mph - N/A   Clear
2:53 AM 42.1 °F 37.7 °F 27.0 °F 55% 29.83 in 10.0 mi NNE 6.9 mph - N/A   Clear
3:53 AM 41.0 °F 37.1 °F 26.1 °F 55% 29.81 in 10.0 mi NNW 5.8 mph - N/A   Clear
4:53 AM 37.0 °F 32.4 °F 23.0 °F 57% 29.82 in 10.0 mi ENE 5.8 mph - N/A   Clear
5:53 AM 37.9 °F 32.7 °F 25.0 °F 60% 29.80 in 10.0 mi NE 6.9 mph - N/A   Clear
6:53 AM 41.0 °F 37.1 °F 26.1 °F 55% 29.81 in 10.0 mi ENE 5.8 mph - N/A   Clear
7:53 AM 50.0 °F - 28.9 °F 44% 29.80 in 10.0 mi NNE 6.9 mph - N/A   Clear
8:53 AM 57.0 °F - 32.0 °F 39% 29.81 in 10.0 mi East 6.9 mph - N/A   Clear
9:53 AM 63.0 °F - 30.0 °F 29% 29.79 in 10.0 mi South 5.8 mph - N/A   Clear
10:53 AM 71.1 °F - 23.0 °F 16% 29.75 in 10.0 mi South 11.5 mph 18.4 mph N/A   Clear
11:53 AM 75.0 °F - 19.9 °F 13% 29.74 in 10.0 mi South 17.3 mph 27.6 mph N/A   Clear
12:53 PM 77.0 °F - 14.0 °F 9% 29.71 in 10.0 mi South 23.0 mph 32.2 mph N/A   Clear
1:53 PM 79.0 °F - 12.9 °F 8% 29.71 in 10.0 mi SW 20.7 mph 36.8 mph N/A   Clear
2:53 PM 80.1 °F - 10.0 °F 7% 29.70 in 10.0 mi SSW 23.0 mph 31.1 mph N/A   Clear
3:53 PM 80.1 °F - 9.0 °F 7% 29.68 in 10.0 mi WSW 24.2 mph 33.4 mph N/A   Clear
4:53 PM 80.1 °F - 5.0 °F 6% 29.69 in 10.0 mi SSW 15.0 mph 32.2 mph N/A   Clear
5:53 PM 79.0 °F - 6.1 °F 6% 29.68 in 10.0 mi WSW 19.6 mph - N/A   Clear
6:53 PM 75.0 °F - 8.1 °F 8% 29.71 in 10.0 mi WSW 23.0 mph 26.5 mph N/A   Clear
7:53 PM 72.0 °F - 8.1 °F 8% 29.70 in 10.0 mi WSW 15.0 mph - N/A   Clear
8:53 PM 66.9 °F - 8.1 °F 10% 29.72 in 10.0 mi WSW 4.6 mph - N/A   Clear
9:53 PM 64.9 °F - 9.0 °F 11% 29.73 in 10.0 mi West 5.8 mph - N/A   Clear
10:53 PM 59.0 °F - 9.0 °F 14% 29.73 in 10.0 mi Calm Calm - N/A   Clear
11:53 PM 57.0 °F - 8.1 °F 14% 29.72 in 10.0 mi Calm Calm - N/A   Clear